Visibility
15.0 15.0 15.0 15.0 14.7 15.0 15.0 14.9 15.0 15.0 15.0 15.0 15.0 15.0 15.0 15.0 11.3 14.3 15.0 15.0 15.0 3.9 14.7 12.8 15.0 15.0 15.0 15.0 15.0 15.0 15.0 15.0 15.0 15.0 15.0 15.0 15.0 15.0
15.0 15.0 15.0 15.0 15.0 15.0 15.0 15.0 15.0 14.3 15.0 15.0 15.0 15.0 15.0 15.0 6.3 14.6 11.9 7.0 10.6 15.0 15.0 15.0 7.6 15.0 15.0 15.0 15.0 15.0 15.0 15.0 15.0 15.0 15.0 15.0 14.3 15.0
15.0 15.0 15.0 15.0 15.0 15.0 15.0 15.0 15.0 15.0 14.0 15.0 15.0 15.0 15.0 15.0 14.2 0.5 15.0 9.4 13.5 15.0 15.0 15.0 15.0 15.0 15.0 15.0 13.7 11.5 15.0 15.0 15.0 15.0 15.0 15.0 11.5 15.0
15.0 15.0 15.0 15.0 15.0 15.0 14.9 15.0 15.0 14.6 8.7 15.0 15.0 15.0 15.0 15.0 15.0 14.2 13.6 15.0 15.0 15.0 15.0 15.0 14.2 6.9 5.9 14.6 10.2 15.0 15.0 15.0 15.0 15.0 15.0 15.0 13.6 15.0
15.0 15.0 15.0 15.0 15.0 15.0 15.0 15.0 13.6 10.5 13.8 15.0 15.0 15.0 11.4 15.0 15.0 15.0 15.0 15.0 12.0 0.6 11.9 2.3 11.0 8.0 13.8 6.3 15.0 15.0 15.0 15.0 15.0 14.8 15.0 10.8 15.0 15.0
15.0 15.0 15.0 15.0 15.0 15.0 15.0 15.0 15.0 15.0 15.0 10.8 9.0 15.0 15.0 15.0 9.4 15.0 0.1 0.2 0.3 2.7 7.4 15.0 14.2 15.0 15.0 11.2 12.8 0.6 0.2 0.2 0.6 15.0 15.0 13.8 15.0 15.0
15.0 15.0 15.0 15.0 7.2 15.0 15.0 15.0 15.0 15.0 15.0 15.0 15.0 15.0 15.0 0.1 0.0 4.8 0.1 0.9 0.8 13.8 15.0 15.0 11.9 0.9 4.4 15.0 15.0 15.0 15.0 15.0 15.0 15.0 15.0 15.0 15.0 15.0
15.0 15.0 15.0 0.4 0.5 15.0 14.8 3.2 1.8 14.4 15.0 15.0 15.0 15.0 7.6 0.6 0.3 0.1 0.1 0.1 0.1 0.6 0.1 0.2 14.9 6.5 15.0 15.0 12.6 4.6 15.0 15.0 15.0 14.9 15.0 15.0 15.0 15.0
11.8 15.0 15.0 15.0 0.3 15.0 15.0 15.0 14.1 13.6 1.5 0.2 0.1 0.1 0.1 0.1 0.4 0.2 0.1 0.1 0.1 0.1 15.0 0.3 14.1 3.1 7.2 7.6 15.0 10.9 15.0 15.0 15.0 15.0 15.0 15.0 15.0 15.0
11.4 9.6 8.7 11.6 9.1 15.0 15.0 0.2 0.4 1.9 0.4 0.9 0.2 0.5 7.0 9.2 0.2 0.3 0.2 1.3 13.6 9.1 4.1 0.1 0.5 1.3 3.4 4.3 6.4 4.7 10.9 15.0 15.0 15.0 15.0 15.0 15.0 15.0
15.0 15.0 15.0 15.0 15.0 15.0 13.9 0.2 0.2 0.5 10.2 11.9 10.3 15.0 15.0 15.0 15.0 15.0 0.1 2.9 0.1 0.1 0.5 0.2 0.1 1.7 6.6 9.8 13.6 15.0 15.0 15.0 15.0 15.0 15.0 15.0 15.0 15.0
15.0 15.0 14.9 15.0 15.0 15.0 15.0 12.3 0.1 0.1 15.0 15.0 9.8 14.6 15.0 15.0 14.6 8.9 0.1 0.1 0.1 0.4 0.2 0.0 0.0 1.3 11.9 15.0 15.0 15.0 15.0 15.0 15.0 15.0 15.0 15.0 15.0 15.0
15.0 15.0 15.0 15.0 15.0 15.0 15.0 6.6 2.3 9.5 7.5 6.5 6.6 8.4 6.3 6.5 3.5 5.0 8.2 0.1 0.0 0.1 12.1 5.2 0.0 0.2 1.1 1.0 15.0 15.0 15.0 15.0 15.0 15.0 15.0 15.0 15.0 15.0
15.0 15.0 15.0 15.0 15.0 15.0 15.0 15.0 15.0 15.0 15.0 15.0 14.9 11.2 9.5 12.5 15.0 15.0 15.0 15.0 15.0 9.6 15.0 0.3 0.1 3.7 0.5 2.7 15.0 15.0 15.0 15.0 15.0 15.0 15.0 15.0 15.0 15.0
15.0 15.0 15.0 15.0 15.0 15.0 15.0 15.0 15.0 15.0 15.0 15.0 15.0 8.1 9.0 8.4 15.0 15.0 15.0 15.0 15.0 15.0 15.0 0.6 0.1 0.3 0.1 1.9 9.1 12.2 15.0 15.0 15.0 15.0 15.0 15.0 15.0 15.0
15.0 15.0 15.0 15.0 15.0 15.0 15.0 15.0 15.0 15.0 15.0 15.0 15.0 12.6 15.0 15.0 15.0 9.5 5.7 15.0 14.1 15.0 15.0 15.0 15.0 7.6 0.2 11.6 14.5 14.9 15.0 5.5 15.0 15.0 15.0 15.0 15.0 15.0
15.0 15.0 15.0 15.0 15.0 15.0 15.0 15.0 15.0 15.0 15.0 15.0 15.0 15.0 15.0 15.0 14.6 5.2 2.4 4.0 8.1 8.2 0.6 14.1 15.0 15.0 11.7 14.2 11.6 15.0 15.0 15.0 15.0 15.0 11.1 7.8 15.0 15.0
15.0 15.0 15.0 15.0 15.0 15.0 15.0 15.0 15.0 15.0 15.0 15.0 15.0 15.0 15.0 13.8 5.4 8.1 5.0 4.1 2.6 13.7 15.0 12.2 4.7 12.6 15.0 15.0 15.0 15.0 10.7 14.0 15.0 15.0 3.4 0.2 8.5 15.0
15.0 15.0 15.0 15.0 15.0 9.8 15.0 8.2 6.7 13.4 15.0 6.1 6.2 8.6 15.0 15.0 5.8 15.0 15.0 15.0 15.0 15.0 15.0 14.1 4.1 1.9 2.5 1.6 15.0 15.0 0.3 14.7 11.7 0.9 14.6 12.5 0.8 15.0
15.0 15.0 14.1 15.0 9.6 6.4 5.9 5.4 5.9 5.6 5.2 4.9 4.6 4.4 4.1 4.3 4.1 4.1 4.5 3.3 3.9 5.5 8.1 10.3 4.0 0.6 0.3 0.4 0.3 14.8 15.0 3.1 6.5 10.1 4.9 15.0 15.0 15.0
15.0 15.0 15.0 15.0 15.0 9.8 14.3 6.2 8.5 5.2 3.5 4.1 4.1 4.1 4.1 4.1 4.1 4.1 3.6 13.6 8.6 2.9 2.4 4.8 9.7 13.1 14.0 7.2 0.7 14.4 15.0 15.0 15.0 6.4 1.0 0.2 6.6 4.5
15.0 15.0 15.0 15.0 15.0 14.7 5.7 4.8 4.4 7.4 4.7 4.3 3.9 9.4 5.9 4.0 3.1 2.4 2.6 1.3 3.1 2.0 2.3 15.0 15.0 5.6 3.7 1.1 0.9 2.3 14.6 15.0 15.0 15.0 15.0 10.6 1.2 0.4
15.0 15.0 15.0 15.0 14.7 5.7 4.8 4.4 4.1 6.1 5.1 4.1 3.9 4.1 4.1 4.1 4.2 3.0 2.6 3.5 1.7 1.6 5.9 6.5 4.7 4.2 4.1 3.4 4.5 4.2 13.0 15.0 15.0 15.0 15.0 15.0 15.0 15.0